This is the latest recevied weather packets stored in our database for station/object WA7SB-7. If no packets are shown the sender has not sent any weather packets the latest 10 day(s).
| Time | Temp. | Humidity | Pressure | Rain* | Wind** | Luminosity | Snow |
|---|---|---|---|---|---|---|---|
| 1777498213 | 16.11° C | 73% | 1023.4 hPa | 0 mm | - | - | - |
| 1777498173 | 16.11° C | 73% | 1023.3 hPa | 0 mm | - | - | - |
| 1777497930 | 16.11° C | 73% | 1023.4 hPa | 0 mm | - | - | - |
| 1777497869 | 16.11° C | 72% | 1023.3 hPa | 0 mm | - | - | - |
| 1777497626 | 16.11° C | 70% | 1023.4 hPa | 0 mm | - | - | - |
| 1777497566 | 16.11° C | 70% | 1023.3 hPa | 0 mm | - | - | - |
| 1777497319 | 16.11° C | 71% | 1023.3 hPa | 0 mm | - | - | - |
| 1777497266 | 16.11° C | 71% | 1023.3 hPa | 0 mm | - | - | - |
| 1777497021 | 16.11° C | 74% | 1023.2 hPa | 0 mm | - | - | - |
| 1777496964 | 16.11° C | 73% | 1023.2 hPa | 0 mm | - | - | - |
| 1777496721 | 16.11° C | 70% | 1023.2 hPa | 0 mm | - | - | - |
| 1777496659 | 16.11° C | 71% | 1023.2 hPa | 0 mm | - | - | - |
| 1777496425 | 16.11° C | 69% | 1023.2 hPa | 0 mm | - | - | - |
| 1777496365 | 16.11° C | 69% | 1023.2 hPa | 0 mm | - | - | - |
| 1777496119 | 16.11° C | 71% | 1023.3 hPa | 0 mm | - | - | - |
| 1777496057 | 16.11° C | 70% | 1023.4 hPa | 0 mm | - | - | - |
| 1777495815 | 16.11° C | 71% | 1023.5 hPa | 0 mm | - | - | - |
| 1777495774 | 16.11° C | 69% | 1023.5 hPa | 0 mm | - | - | - |
| 1777495532 | 16.11° C | 70% | 1023.5 hPa | 0 mm | - | - | - |
| 1777495471 | 16.11° C | 70% | 1023.5 hPa | 0 mm | - | - | - |
| 1777495229 | 16.11° C | 69% | 1023.5 hPa | 0 mm | - | - | - |
| 1777495170 | 16.11° C | 71% | 1023.5 hPa | 0 mm | - | - | - |
| 1777494929 | 16.11° C | 69% | 1023.4 hPa | 0 mm | - | - | - |
| 1777494867 | 16.11° C | 69% | 1023.6 hPa | 0 mm | - | - | - |
| 1777494623 | 16.11° C | 70% | 1023.6 hPa | 0 mm | - | - | - |
* Rain latest hour (hover to see other rain measurements)
** Current wind speed in m/s (hover to see current wind gust speed)